STW225 LZKZ-LZIB

Flight info

Callsign STW225
Flight time 0h 40m
Altitude 24000
Route TAKOS DCT KALIF DCT SLC N190 NIT
Aircraft B38M/M-SDE1FGHILORVWXY/HB1

Departure

Time 2026-05-08 12:43
Airport Košice International Airport (LZKZ)

Arrival

Time 2026-05-08 13:24
Airport M. R. Štefánik Airport (LZIB)
Time Latitude Longitude Altitude Speed Heading
2026-05-08 12:01 48.67239 21.23969 767 ft 0 kts 261°
2026-05-08 12:29 48.67239 21.23963 767 ft 1 kts 261°
2026-05-08 12:29 48.67237 21.23947 767 ft 2 kts 261°
2026-05-08 12:29 48.67235 21.23928 768 ft 0 kts 259°
2026-05-08 12:35 48.67235 21.23926 768 ft 1 kts 269°
2026-05-08 12:35 48.67257 21.23906 768 ft 7 kts 352°
2026-05-08 12:35 48.67296 21.23957 767 ft 11 kts 77°
2026-05-08 12:36 48.67272 21.24132 765 ft 23 kts 103°
2026-05-08 12:36 48.67236 21.24360 764 ft 7 kts 103°
2026-05-08 12:36 48.67235 21.24365 764 ft 0 kts 103°
2026-05-08 12:36 48.67235 21.24366 764 ft 0 kts 103°
2026-05-08 12:37 48.67226 21.24419 764 ft 11 kts 103°
2026-05-08 12:37 48.67208 21.24547 765 ft 14 kts 102°
2026-05-08 12:37 48.67198 21.24613 764 ft 1 kts 103°
2026-05-08 12:38 48.67190 21.24666 764 ft 10 kts 103°
2026-05-08 12:38 48.67147 21.24751 764 ft 11 kts 173°
2026-05-08 12:38 48.67072 21.24731 765 ft 11 kts 192°
2026-05-08 12:38 48.66985 21.24703 767 ft 16 kts 193°
2026-05-08 12:39 48.66832 21.24653 764 ft 29 kts 192°
2026-05-08 12:39 48.66656 21.24590 763 ft 25 kts 193°
2026-05-08 12:39 48.66470 21.24524 759 ft 29 kts 193°
2026-05-08 12:39 48.66286 21.24460 755 ft 24 kts 193°
2026-05-08 12:40 48.66119 21.24403 756 ft 25 kts 193°
2026-05-08 12:40 48.65943 21.24341 758 ft 26 kts 193°
2026-05-08 12:40 48.65764 21.24277 757 ft 27 kts 193°
2026-05-08 12:40 48.65578 21.24211 759 ft 29 kts 193°
2026-05-08 12:41 48.65371 21.24139 755 ft 31 kts 193°
2026-05-08 12:41 48.65158 21.24065 748 ft 29 kts 192°
2026-05-08 12:41 48.65015 21.24015 751 ft 19 kts 193°
2026-05-08 12:41 48.64910 21.23915 753 ft 13 kts 242°
2026-05-08 12:42 48.64907 21.23796 754 ft 0 kts 286°
2026-05-08 12:42 48.64910 21.23780 754 ft 5 kts 288°
2026-05-08 12:42 48.64947 21.23711 753 ft 13 kts 322°
2026-05-08 12:43 48.65062 21.23681 759 ft 28 kts 12°
2026-05-08 12:43 48.65539 21.23847 755 ft 114 kts 13°
2026-05-08 12:43 48.66547 21.24205 933 ft 171 kts 13°
2026-05-08 12:43 48.67821 21.24679 1650 ft 198 kts 13°
2026-05-08 12:44 48.69202 21.25155 2817 ft 208 kts 13°
2026-05-08 12:44 48.70678 21.25661 3782 ft 227 kts 12°
2026-05-08 12:44 48.72289 21.26218 4756 ft 243 kts 12°
2026-05-08 12:44 48.73938 21.26792 6043 ft 245 kts 11°
2026-05-08 12:45 48.75602 21.27341 7115 ft 251 kts
2026-05-08 12:45 48.77325 21.27064 8190 ft 251 kts 336°
2026-05-08 12:45 48.78738 21.25556 9241 ft 252 kts 308°
2026-05-08 12:45 48.79492 21.23182 10264 ft 253 kts 279°
2026-05-08 12:46 48.79567 21.20510 11218 ft 255 kts 271°
2026-05-08 12:46 48.79681 21.17795 12135 ft 260 kts 275°
2026-05-08 12:46 48.79890 21.15064 13104 ft 262 kts 277°
2026-05-08 12:46 48.80173 21.12311 14000 ft 265 kts 279°
2026-05-08 12:47 48.80382 21.09520 14771 ft 269 kts 265°
2026-05-08 12:47 48.79837 21.06822 15572 ft 271 kts 245°
2026-05-08 12:47 48.79052 21.04200 16270 ft 277 kts 248°
2026-05-08 12:47 48.78303 21.01490 17015 ft 280 kts 249°
2026-05-08 12:48 48.77542 20.98684 17411 ft 297 kts 249°
2026-05-08 12:48 48.76750 20.95732 17695 ft 316 kts 249°
2026-05-08 12:48 48.75901 20.92543 17922 ft 336 kts 249°
2026-05-08 12:48 48.75005 20.89168 18189 ft 353 kts 249°
2026-05-08 12:49 48.74077 20.85665 18583 ft 363 kts 249°
2026-05-08 12:49 48.73133 20.82108 19274 ft 364 kts 249°
2026-05-08 12:49 48.72184 20.78533 19893 ft 367 kts 249°
2026-05-08 12:49 48.71229 20.74942 20537 ft 369 kts 249°
2026-05-08 12:50 48.70267 20.71331 21173 ft 371 kts 249°
2026-05-08 12:50 48.69298 20.67696 21781 ft 374 kts 249°
2026-05-08 12:50 48.68332 20.64080 22374 ft 377 kts 249°
2026-05-08 12:50 48.67346 20.60393 22988 ft 379 kts 249°
2026-05-08 12:51 48.66350 20.56676 23552 ft 382 kts 249°
2026-05-08 12:51 48.64281 20.48975 23751 ft 410 kts 249°
2026-05-08 12:51 48.63187 20.44913 23763 ft 424 kts 249°
2026-05-08 12:52 48.62066 20.40756 24114 ft 427 kts 249°
2026-05-08 12:52 48.59810 20.32415 24920 ft 432 kts 249°
2026-05-08 12:52 48.58674 20.28218 25021 ft 431 kts 250°
2026-05-08 12:53 48.57920 20.23870 25029 ft 427 kts 263°
2026-05-08 12:53 48.57477 20.19417 25021 ft 428 kts 261°
2026-05-08 12:53 48.56993 20.14983 25026 ft 428 kts 261°
2026-05-08 12:53 48.56512 20.10553 25034 ft 428 kts 261°
2026-05-08 12:54 48.56029 20.06120 25031 ft 428 kts 261°
2026-05-08 12:54 48.55549 20.01731 25029 ft 428 kts 261°
2026-05-08 12:54 48.55062 19.97294 25029 ft 428 kts 261°
2026-05-08 12:54 48.54574 19.92860 25015 ft 429 kts 261°
2026-05-08 12:55 48.54083 19.88412 25040 ft 429 kts 261°
2026-05-08 12:55 48.53591 19.83973 25029 ft 429 kts 261°
2026-05-08 12:55 48.53099 19.79550 25014 ft 428 kts 261°
2026-05-08 12:55 48.52604 19.75116 25042 ft 429 kts 261°
2026-05-08 12:56 48.52105 19.70673 25024 ft 429 kts 261°
2026-05-08 12:56 48.51607 19.66243 25027 ft 429 kts 261°
2026-05-08 12:56 48.51275 19.63300 25018 ft 429 kts 261°
2026-05-08 12:56 48.50774 19.58868 25020 ft 429 kts 261°
2026-05-08 12:57 48.50271 19.54437 25014 ft 428 kts 261°
2026-05-08 12:57 48.49768 19.50013 25022 ft 427 kts 261°
2026-05-08 12:57 48.49263 19.45584 25015 ft 427 kts 261°
2026-05-08 12:57 48.48759 19.41183 25016 ft 427 kts 261°
2026-05-08 12:58 48.48252 19.36768 25020 ft 427 kts 261°
2026-05-08 12:58 48.47750 19.32417 25022 ft 427 kts 260°
2026-05-08 12:58 48.47240 19.28009 25028 ft 427 kts 260°
2026-05-08 12:58 48.46728 19.23595 25025 ft 427 kts 260°
2026-05-08 12:59 48.46215 19.19184 25018 ft 427 kts 261°
2026-05-08 12:59 48.45700 19.14780 25028 ft 427 kts 260°
2026-05-08 12:59 48.45135 19.10384 25024 ft 427 kts 258°
2026-05-08 12:59 48.44494 19.06007 25024 ft 428 kts 258°
2026-05-08 13:00 48.43848 19.01648 24993 ft 428 kts 258°
2026-05-08 13:00 48.43199 18.97285 24774 ft 426 kts 258°
2026-05-08 13:00 48.42550 18.92933 24598 ft 426 kts 258°
2026-05-08 13:00 48.41899 18.88585 24411 ft 425 kts 258°
2026-05-08 13:01 48.41248 18.84245 24162 ft 425 kts 257°
2026-05-08 13:01 48.40595 18.79912 23808 ft 424 kts 257°
2026-05-08 13:01 48.39941 18.75578 23402 ft 424 kts 257°
2026-05-08 13:01 48.39287 18.71255 22947 ft 422 kts 257°
2026-05-08 13:02 48.38637 18.66976 22487 ft 420 kts 257°
2026-05-08 13:02 48.37987 18.62706 21973 ft 417 kts 257°
2026-05-08 13:02 48.37341 18.58471 21483 ft 414 kts 257°
2026-05-08 13:02 48.36696 18.54253 20968 ft 412 kts 257°
2026-05-08 13:03 48.36062 18.50117 20466 ft 410 kts 257°
2026-05-08 13:03 48.35422 18.45951 19984 ft 408 kts 257°
2026-05-08 13:03 48.34784 18.41809 19496 ft 406 kts 257°
2026-05-08 13:03 48.34149 18.37690 19017 ft 403 kts 257°
2026-05-08 13:04 48.33515 18.33594 18557 ft 402 kts 257°
2026-05-08 13:04 48.32882 18.29510 18051 ft 400 kts 257°
2026-05-08 13:04 48.32251 18.25454 17517 ft 397 kts 257°
2026-05-08 13:04 48.31623 18.21424 16992 ft 395 kts 257°
2026-05-08 13:05 48.30997 18.17418 16471 ft 391 kts 257°
2026-05-08 13:05 48.30379 18.13475 15959 ft 384 kts 257°
2026-05-08 13:05 48.29768 18.09584 15313 ft 378 kts 256°
2026-05-08 13:05 48.29176 18.05811 14695 ft 365 kts 257°
2026-05-08 13:06 48.28791 18.02107 14116 ft 354 kts 262°
2026-05-08 13:06 48.28467 17.98486 13476 ft 346 kts 262°
2026-05-08 13:06 48.28151 17.94989 12832 ft 338 kts 262°
2026-05-08 13:06 48.27836 17.91523 12200 ft 332 kts 262°
2026-05-08 13:07 48.27527 17.88104 11626 ft 329 kts 262°
2026-05-08 13:07 48.27219 17.84704 11043 ft 327 kts 262°
2026-05-08 13:07 48.26916 17.81360 10492 ft 319 kts 262°
2026-05-08 13:07 48.26642 17.78092 9938 ft 313 kts 266°
2026-05-08 13:08 48.26536 17.74858 9339 ft 308 kts 267°
2026-05-08 13:08 48.26435 17.71684 8745 ft 302 kts 267°
2026-05-08 13:08 48.26333 17.68559 8162 ft 297 kts 267°
2026-05-08 13:08 48.26231 17.65468 7577 ft 294 kts 267°
2026-05-08 13:09 48.25873 17.62494 6994 ft 290 kts 246°
2026-05-08 13:09 48.24694 17.60075 6450 ft 289 kts 223°
2026-05-08 13:09 48.23018 17.58427 5867 ft 290 kts 205°
2026-05-08 13:09 48.21059 17.57694 5289 ft 292 kts 184°
2026-05-08 13:10 48.19077 17.57989 4817 ft 288 kts 173°
2026-05-08 13:10 48.17114 17.58397 4416 ft 280 kts 175°
2026-05-08 13:10 48.15225 17.58773 4154 ft 268 kts 174°
2026-05-08 13:10 48.13411 17.59126 4055 ft 255 kts 174°
2026-05-08 13:11 48.11700 17.59457 3916 ft 242 kts 174°
2026-05-08 13:11 48.10052 17.59770 3841 ft 237 kts 174°
2026-05-08 13:11 48.08414 17.60071 3640 ft 236 kts 175°
2026-05-08 13:11 48.06788 17.60363 3528 ft 236 kts 175°
2026-05-08 13:12 48.05178 17.60653 3504 ft 226 kts 175°
2026-05-08 13:12 48.03644 17.60921 3535 ft 216 kts 174°
2026-05-08 13:12 48.02263 17.61710 3445 ft 213 kts 141°
2026-05-08 13:12 48.01245 17.63302 3414 ft 209 kts 133°
2026-05-08 13:13 48.00276 17.64844 3209 ft 204 kts 134°
2026-05-08 13:13 47.99317 17.66341 3048 ft 193 kts 133°
2026-05-08 13:13 47.98258 17.67448 2915 ft 183 kts 163°
2026-05-08 13:13 47.97028 17.67689 2912 ft 178 kts 190°
2026-05-08 13:14 47.95864 17.67176 3034 ft 174 kts 213°
2026-05-08 13:14 47.94919 17.66113 3039 ft 166 kts 231°
2026-05-08 13:14 47.94417 17.64622 2894 ft 160 kts 268°
2026-05-08 13:14 47.94615 17.63072 2998 ft 152 kts 289°
2026-05-08 13:15 47.94929 17.61578 3071 ft 149 kts 290°
2026-05-08 13:15 47.95284 17.60131 3192 ft 149 kts 294°
2026-05-08 13:15 47.95674 17.58712 3125 ft 150 kts 292°
2026-05-08 13:15 47.96057 17.57252 3045 ft 150 kts 292°
2026-05-08 13:16 47.96466 17.55830 3042 ft 149 kts 297°
2026-05-08 13:16 47.96958 17.54454 3011 ft 150 kts 301°
2026-05-08 13:16 47.97457 17.53082 2973 ft 150 kts 302°
2026-05-08 13:16 47.97986 17.51761 3046 ft 148 kts 302°
2026-05-08 13:17 47.98529 17.50487 2998 ft 148 kts 305°
2026-05-08 13:17 47.99144 17.49263 3014 ft 148 kts 309°
2026-05-08 13:17 47.99805 17.48090 2859 ft 147 kts 311°
2026-05-08 13:17 48.00499 17.46940 2365 ft 152 kts 313°
2026-05-08 13:18 48.01218 17.45789 1988 ft 147 kts 314°
2026-05-08 13:18 48.01912 17.44697 1658 ft 144 kts 313°
2026-05-08 13:18 48.02580 17.43652 1572 ft 136 kts 313°
2026-05-08 13:18 48.03238 17.42626 1682 ft 139 kts 315°
2026-05-08 13:19 48.03920 17.41572 1692 ft 142 kts 315°
2026-05-08 13:19 48.04609 17.40504 1769 ft 142 kts 314°
2026-05-08 13:19 48.05285 17.39461 2099 ft 144 kts 315°
2026-05-08 13:19 48.05978 17.38392 2332 ft 144 kts 314°
2026-05-08 13:20 48.06675 17.37312 2460 ft 145 kts 314°
2026-05-08 13:20 48.07365 17.36240 2556 ft 142 kts 314°
2026-05-08 13:20 48.08054 17.35172 2555 ft 144 kts 313°
2026-05-08 13:20 48.08743 17.34102 2376 ft 141 kts 313°
2026-05-08 13:21 48.09411 17.33068 2209 ft 136 kts 314°
2026-05-08 13:21 48.10065 17.32055 2049 ft 135 kts 314°
2026-05-08 13:21 48.10715 17.31046 1876 ft 135 kts 313°
2026-05-08 13:21 48.11367 17.30035 1705 ft 134 kts 313°
2026-05-08 13:22 48.12021 17.29022 1534 ft 137 kts 315°
2026-05-08 13:22 48.12688 17.27988 1358 ft 138 kts 314°
2026-05-08 13:22 48.13339 17.26957 1211 ft 135 kts 313°
2026-05-08 13:22 48.13983 17.25934 1003 ft 135 kts 312°
2026-05-08 13:23 48.14635 17.24940 780 ft 133 kts 313°
2026-05-08 13:23 48.15272 17.23967 600 ft 132 kts 312°
2026-05-08 13:23 48.15907 17.22985 450 ft 126 kts 311°
2026-05-08 13:23 48.16454 17.22132 431 ft 102 kts 314°
2026-05-08 13:24 48.16703 17.21748 437 ft 3 kts 314°
2026-05-08 13:24 48.16741 17.21688 440 ft 13 kts 313°
2026-05-08 13:24 48.16831 17.21548 440 ft 24 kts 315°
2026-05-08 13:24 48.16947 17.21370 445 ft 20 kts 314°
2026-05-08 13:25 48.17052 17.21205 440 ft 23 kts 314°
2026-05-08 13:25 48.17134 17.21075 433 ft 11 kts 308°
2026-05-08 13:25 48.17107 17.20981 437 ft 4 kts 224°
2026-05-08 13:26 48.17104 17.20977 437 ft 4 kts 224°
2026-05-08 13:26 48.17054 17.20896 445 ft 17 kts 229°
2026-05-08 13:26 48.17079 17.20793 440 ft 13 kts 315°
2026-05-08 13:26 48.17147 17.20692 441 ft 15 kts 313°
2026-05-08 13:27 48.17172 17.20591 438 ft 11 kts 260°
2026-05-08 13:27 48.17160 17.20560 446 ft 5 kts 229°
2026-05-08 13:27 48.17141 17.20526 440 ft 1 kts 249°
2026-05-08 13:27 48.17144 17.20507 444 ft 3 kts 306°
2026-05-08 13:28 48.17168 17.20466 446 ft 0 kts 314°
2026-05-08 13:28 48.15555 17.23531 508 ft 132 kts 311°
2026-05-08 13:28 48.16162 17.22583 438 ft 115 kts 312°